Milton, FL

7:44 PM CST on January 20, 2017 (GMT -0600)
Whiting Field Naval Air Station (South)

Weather History for KNDZ - September, 2013

Change the Weather History Date:

Wednesday, September 25, 2013

  Actual Average (KNSE) Record (KNSE)
Temperature  
Mean Temperature 78 °F -  
Max Temperature 87 °F 81 °F 93 °F (2016)
Min Temperature 68 °F 64 °F 55 °F (2001)
Cooling Degree Days 13    
Growing Degree Days 28 (Base 50)    
Moisture  
Dew Point 71 °F    
Average Humidity 81    
Maximum Humidity 100    
Minimum Humidity 55    
Precipitation  
Precipitation 0.00 in - - ()
Sea Level Pressure  
Sea Level Pressure 29.77 in    
Wind  
Wind Speed 3 mph (NW)    
Max Wind Speed 7 mph    
Max Gust Speed -    
Visibility 10 miles    
Events      
Averages and records for this station are not official NWS values.
T = Trace of Precipitation, MM = Missing Value Source: NWS Daily Summary

Daily Weather History Graph

Daily Weather History Graph

Search for Another Location

Airport or City:

Trip Planner

Search our weather history database for the weather conditions in past years. The results will help you decide how hot, cold, wet, or windy it might be!

Date:

Astronomy

Sep. 25, 2013 Rise Set
Actual Time 6:38 AM CDT 6:40 PM CDT
Civil Twilight 6:14 AM CDT 7:04 PM CDT
Nautical Twilight 5:46 AM CDT 7:32 PM CDT
Astronomical Twilight 5:17 AM CDT 8:00 PM CDT
Moon 11:07 PM CDT (9/25) 12:22 PM CDT (9/25)
Length of Visible Light 12h 50m
Length of Day
12h 02m
Waning Gibbous, 64% of the Moon is Illuminated
Sep 25
Waning Gibbous
Sep 26
Last Quarter
Oct 4
New
Oct 11
First Quarter
Oct 18
Full

Hourly Weather History & Observations

Time (CDT) Temp. Heat Index Dew Point Humidity Pressure Visibility Wind Dir Wind Speed Gust Speed Precip Events Conditions
12:56 AM 73.8 °F - 70.0 °F 88% 29.74 in 10.0 mi Calm Calm - N/A   Mostly Cloudy
1:56 AM - - - N/A% 29.79 in - North - - N/A   Unknown
2:56 AM - - - N/A% 29.78 in - North - - N/A   Unknown
3:56 AM - - - N/A% 29.76 in - North - - N/A   Unknown
4:25 AM - - - N/A% - - North - - N/A   Unknown
4:56 AM - - - N/A% 29.78 in - North - - N/A   Unknown
5:56 AM 71.6 °F - 69.8 °F 94% 29.76 in 10.0 mi North 3.5 mph - N/A   Overcast
6:56 AM 71.6 °F - 69.8 °F 94% 29.78 in 10.0 mi Calm Calm - N/A   Mostly Cloudy
7:56 AM 73.9 °F - 73.0 °F 97% 29.75 in 10.0 mi NNE 5.8 mph - N/A   Mostly Cloudy
8:03 AM 73.4 °F - 73.4 °F 100% 29.80 in 10.0 mi NE 5.8 mph - N/A   Mostly Cloudy
8:56 AM 75.9 °F - 72.0 °F 87% 29.77 in 10.0 mi Calm Calm - N/A   Mostly Cloudy
9:56 AM 79.0 °F - 73.0 °F 82% 29.78 in 10.0 mi Calm Calm - N/A   Overcast
10:56 AM 79.0 °F - 73.9 °F 84% 29.78 in 10.0 mi Calm Calm - N/A   Overcast
11:14 AM 80.6 °F 85.4 °F 73.4 °F 79% 29.82 in 10.0 mi NW 3.5 mph - N/A   Mostly Cloudy
11:56 AM 82.9 °F 89.4 °F 73.9 °F 74% 29.77 in 10.0 mi Variable 5.8 mph - N/A   Mostly Cloudy
12:00 PM - - - N/A% - - North - - N/A   Unknown
12:56 PM 84.9 °F 90.7 °F 72.0 °F 65% 29.75 in 10.0 mi West 4.6 mph - N/A   Mostly Cloudy
1:56 PM 87.1 °F 92.8 °F 71.1 °F 59% 29.77 in 10.0 mi Variable 4.6 mph - N/A   Scattered Clouds
2:56 PM 87.1 °F 92.8 °F 71.1 °F 59% 29.76 in 10.0 mi Variable 5.8 mph - N/A   Scattered Clouds
3:56 PM 87.1 °F 91.3 °F 69.1 °F 55% 29.76 in 10.0 mi Variable 5.8 mph - N/A   Scattered Clouds
4:56 PM 84.9 °F 88.8 °F 69.1 °F 59% 29.76 in 10.0 mi NW 6.9 mph - N/A   Scattered Clouds
5:56 PM 82.0 °F 86.3 °F 71.1 °F 69% 29.73 in 10.0 mi NW 5.8 mph - N/A   Partly Cloudy
6:56 PM 77.0 °F - 71.1 °F 82% 29.75 in 10.0 mi WNW 3.5 mph - N/A   Partly Cloudy
7:56 PM 73.9 °F - 71.1 °F 91% 29.76 in 10.0 mi WNW 3.5 mph - N/A   Clear
8:56 PM 73.0 °F - 70.0 °F 90% 29.77 in 10.0 mi NW 3.5 mph - N/A   Clear
9:56 PM 72.0 °F - 68.0 °F 87% 29.78 in 10.0 mi Calm Calm - N/A   Clear
10:56 PM 69.1 °F - 66.9 °F 93% 29.78 in 10.0 mi WNW 3.5 mph - N/A   Clear
11:56 PM 68.0 °F - 66.0 °F 93% 29.78 in 10.0 mi NW 3.5 mph - N/A   Clear